Location: Champseau
(45.8333°N, 1.7667°E)
Time: 09:44:57
(UTC+00:00)

ITUPSAT 1 - Pass Details

Date: 05 December 2021
Orbit: 700 x 713 km, 98.6° (Epoch: 27 January)

Event Time Altitude Azimuth Distance (km) Brightness Sun altitude
Rises 06:25:06 0° 157° (SSE) 3,087 ? -9.0°
Reaches altitude 10° 06:27:21 10° 154° (SSE) 2,175 ? -8.7°
Maximum altitude 06:32:05 68° 72° (ENE) 768 ? -7.9°
Drops below altitude 10° 06:36:51 10° 351° (N) 2,198 ? -7.2°
Sets 06:39:08 0° 349° (N) 3,124 ? -6.8°
